TimeCST,TemperatureF,Dew PointF,Humidity,Sea Level PressureIn,VisibilityMPH,Wind Direction,Wind SpeedMPH,Gust SpeedMPH,PrecipitationIn,Events,Conditions,WindDirDegrees,DateUTC
12:15 AM,36.1,33.6,91,30.12,7.0,North,3.5,-,N/A,,Clear,10,2012-11-20 06:15:00
12:35 AM,36.1,34.0,92,30.13,7.0,NNE,3.5,-,N/A,,Clear,20,2012-11-20 06:35:00
12:55 AM,36.5,33.8,90,30.13,7.0,North,4.6,-,N/A,,Clear,350,2012-11-20 06:55:00
1:15 AM,36.0,33.3,90,30.13,7.0,North,4.6,-,N/A,,Clear,350,2012-11-20 07:15:00
1:35 AM,35.6,33.1,91,30.13,7.0,North,3.5,-,N/A,,Clear,350,2012-11-20 07:35:00
1:55 AM,34.9,32.4,91,30.14,7.0,Calm,Calm,-,N/A,,Clear,0,2012-11-20 07:55:00
2:15 AM,34.3,32.4,92,30.14,7.0,Calm,Calm,-,N/A,,Clear,0,2012-11-20 08:15:00
2:35 AM,32.0,31.1,96,30.14,7.0,Calm,Calm,-,N/A,,Clear,0,2012-11-20 08:35:00
4:35 AM,30.2,30.2,100,30.16,5.0,NNE,3.5,-,N/A,,Clear,20,2012-11-20 10:35:00
6:15 AM,26.1,25.7,99,30.17,3.0,Calm,Calm,-,N/A,,Clear,0,2012-11-20 12:15:00
6:35 AM,26.8,26.4,99,30.18,1.2,Calm,Calm,-,N/A,,Mist,0,2012-11-20 12:35:00
6:55 AM,26.8,26.8,100,30.19,5.0,Calm,Calm,-,N/A,,Clear,0,2012-11-20 12:55:00
7:15 AM,25.9,25.7,99,30.18,1.5,Calm,Calm,-,N/A,,Mist,0,2012-11-20 13:15:00
7:35 AM,27.3,27.3,100,30.18,2.0,East,3.5,-,N/A,,Clear,80,2012-11-20 13:35:00
7:55 AM,25.7,25.7,100,30.19,3.0,Calm,Calm,-,N/A,,Clear,0,2012-11-20 13:55:00
8:15 AM,26.1,25.9,99,30.20,3.0,Calm,Calm,-,N/A,,Clear,0,2012-11-20 14:15:00
8:35 AM,28.2,28.2,100,30.21,3.0,Calm,Calm,-,N/A,,Clear,0,2012-11-20 14:35:00
8:55 AM,29.7,29.5,99,30.21,4.0,Calm,Calm,-,N/A,,Clear,0,2012-11-20 14:55:00
9:15 AM,31.3,30.9,99,30.21,4.0,Calm,Calm,-,N/A,,Clear,0,2012-11-20 15:15:00
9:35 AM,33.3,32.2,96,30.21,5.0,Calm,Calm,-,N/A,,Clear,0,2012-11-20 15:35:00
9:55 AM,35.6,33.6,92,30.21,7.0,Calm,Calm,-,N/A,,Clear,0,2012-11-20 15:55:00
10:15 AM,37.4,33.6,86,30.21,7.0,Calm,Calm,-,N/A,,Clear,0,2012-11-20 16:15:00
10:35 AM,-9999,-9999,N/A,-9999,-9999.0,North,-9999.0,-,N/A,,Unknown,0,2012-11-20 16:35:00
10:55 AM,45.3,33.3,63,30.20,7.0,Calm,Calm,-,0.03,,Clear,0,2012-11-20 16:55:00
11:15 AM,47.3,33.6,59,30.19,10.0,Calm,Calm,-,N/A,,Clear,0,2012-11-20 17:15:00
11:35 AM,49.8,34.2,55,30.18,10.0,Calm,Calm,-,N/A,,Clear,0,2012-11-20 17:35:00
11:55 AM,51.6,34.2,51,30.18,10.0,Calm,Calm,-,N/A,,Clear,0,2012-11-20 17:55:00
12:15 PM,53.8,33.4,46,30.17,10.0,SW,3.5,-,N/A,,Clear,230,2012-11-20 18:15:00
12:35 PM,55.6,31.8,41,30.17,10.0,SSW,5.8,-,N/A,,Clear,200,2012-11-20 18:35:00
12:55 PM,57.4,29.7,35,30.16,10.0,SSW,4.6,-,N/A,,Clear,210,2012-11-20 18:55:00
1:15 PM,58.8,28.8,32,30.15,10.0,SSW,4.6,-,N/A,,Clear,200,2012-11-20 19:15:00
1:35 PM,60.3,27.0,28,30.14,10.0,South,5.8,-,N/A,,Clear,180,2012-11-20 19:35:00
1:55 PM,61.0,26.1,26,30.13,10.0,South,5.8,-,N/A,,Clear,170,2012-11-20 19:55:00
2:15 PM,62.2,22.6,22,30.12,10.0,South,6.9,-,N/A,,Clear,180,2012-11-20 20:15:00
2:35 PM,63.0,22.1,21,30.11,10.0,South,8.1,-,N/A,,Clear,180,2012-11-20 20:35:00
2:55 PM,63.5,18.5,18,30.11,10.0,South,6.9,-,N/A,,Clear,190,2012-11-20 20:55:00
3:15 PM,63.5,15.8,16,30.11,10.0,SSW,6.9,-,N/A,,Clear,210,2012-11-20 21:15:00
3:35 PM,62.6,14.5,15,30.11,10.0,SSW,9.2,-,N/A,,Clear,200,2012-11-20 21:35:00
3:55 PM,61.3,18.1,19,30.11,10.0,South,6.9,-,N/A,,Clear,190,2012-11-20 21:55:00
4:15 PM,60.4,20.1,21,30.11,10.0,South,5.8,-,N/A,,Clear,180,2012-11-20 22:15:00
4:35 PM,57.7,23.0,26,30.10,10.0,SSE,6.9,-,N/A,,Clear,160,2012-11-20 22:35:00
4:55 PM,55.8,22.8,28,30.10,10.0,SSE,5.8,-,N/A,,Clear,160,2012-11-20 22:55:00
5:15 PM,53.6,22.6,30,30.10,10.0,South,5.8,-,N/A,,Clear,170,2012-11-20 23:15:00
5:35 PM,52.7,22.3,31,30.10,10.0,South,8.1,-,N/A,,Clear,170,2012-11-20 23:35:00
5:55 PM,50.9,25.0,36,30.10,7.0,South,5.8,-,N/A,,Clear,170,2012-11-20 23:55:00
6:15 PM,50.4,26.6,40,30.10,10.0,South,5.8,-,N/A,,Clear,170,2012-11-21 00:15:00
6:35 PM,46.2,27.0,47,30.11,10.0,South,4.6,-,N/A,,Clear,170,2012-11-21 00:35:00
6:55 PM,48.9,25.5,40,30.10,10.0,SSE,9.2,-,N/A,,Clear,160,2012-11-21 00:55:00
7:15 PM,45.7,25.9,46,30.11,10.0,South,4.6,-,N/A,,Clear,190,2012-11-21 01:15:00
7:35 PM,48.6,27.5,44,30.10,10.0,South,8.1,-,N/A,,Clear,170,2012-11-21 01:35:00
7:55 PM,47.5,28.4,48,30.10,10.0,SSE,8.1,-,N/A,,Clear,160,2012-11-21 01:55:00
8:15 PM,46.2,29.1,51,30.10,10.0,South,8.1,-,N/A,,Clear,170,2012-11-21 02:15:00
8:35 PM,46.8,29.1,50,30.09,10.0,SSE,9.2,-,N/A,,Clear,160,2012-11-21 02:35:00
8:55 PM,45.7,29.3,53,30.09,10.0,South,8.1,-,N/A,,Clear,170,2012-11-21 02:55:00
9:15 PM,45.5,29.1,53,30.09,10.0,SSE,9.2,-,N/A,,Clear,160,2012-11-21 03:15:00
9:35 PM,45.3,29.3,54,30.09,10.0,South,9.2,-,N/A,,Clear,170,2012-11-21 03:35:00
9:55 PM,46.4,29.3,51,30.08,10.0,South,8.1,-,N/A,,Clear,170,2012-11-21 03:55:00
10:15 PM,46.0,29.8,53,30.09,10.0,SSE,6.9,-,N/A,,Clear,160,2012-11-21 04:15:00
10:35 PM,46.6,30.2,53,30.08,10.0,South,9.2,-,N/A,,Clear,170,2012-11-21 04:35:00
10:55 PM,46.8,30.6,53,30.08,10.0,South,6.9,-,N/A,,Clear,170,2012-11-21 04:55:00
11:15 PM,47.8,30.7,52,30.07,10.0,South,8.1,-,N/A,,Clear,170,2012-11-21 05:15:00
11:35 PM,49.5,30.9,49,30.06,10.0,South,9.2,-,N/A,,Clear,180,2012-11-21 05:35:00
11:55 PM,49.5,31.1,49,30.06,10.0,South,8.1,-,N/A,,Clear,190,2012-11-21 05:55:00